Location: Darlington Observatory
(36.4817°N, 105.8156°W)
Time: 03:14:23
(UTC-07:00)

Daily predictions for brighter satellites

Satellite Brightness Start Highest point End
(mag) Time Altitude Azimuth Time Altitude Azimuth Time Altitude Azimuth
USA 215 4.1 03:35:35 10° NE 03:40:47 45° E 03:40:47 45° E
CZ-3 R/B 4.5 03:31:15 10° SW 03:48:24 24° S 03:55:04 10° ESE
CENTAUR R/B 3.6 03:58:46 38° NE 03:58:46 38° NE 04:02:46 10° NE
Thor Agena Rocket 4.3 04:16:42 10° SSE 04:20:20 46° SE 04:20:20 46° SE
Meteor 1-14 Rocket 4.1 04:30:23 10° S 04:36:05 84° E 04:41:42 10° N
Cosmos 2297 3.9 04:36:46 53° N 04:37:57 69° ENE 04:43:35 10° SSE
DELTA 2 R/B (1) 3.4 04:42:22 79° SSW 04:42:22 79° SSW 04:47:53 10° ESE
Cosmos 2278 Rocket 3.3 04:55:57 29° SW 04:55:57 29° SW 04:59:09 10° S
Cosmos 2074 Rocket 4.2 04:49:29 10° S 04:55:45 74° E 05:02:00 10° N
Meteor 1-25 Rocket 4.2 04:53:18 10° S 04:59:08 88° E 05:04:59 10° N
SL-16 R/B 2.2 04:59:24 55° WNW 04:59:24 55° WNW 05:04:55 10° NNE
ATLAS CENTAUR Rocket 3.6 04:55:54 26° WSW 05:02:16 48° SSW 05:06:51 10° ESE
Ariane Rocket 4.3 04:57:50 10° NNE 05:02:36 41° E 05:07:22 10° S
Cosmos 292 Rocket 3.6 05:02:32 50° SW 05:03:38 69° WNW 05:08:28 10° NNE
Cosmos 1812 2.9 05:03:42 50° NNE 05:04:34 71° E 05:08:25 10° SSE
GPS 2-05 Rocket1 3.1 05:05:47 66° ESE 05:05:47 66° ESE 05:08:59 10° E
Cosmos 1346 Rocket 4.0 05:04:26 13° N 05:07:42 40° ENE 05:11:24 10° SSE
Iridium 2 3.6 05:04:45 10° S 05:08:34 86° E 05:10:21 30° N
Cosmos 2184 Rocket 3.9 05:03:20 10° S 05:09:29 90° W 05:15:42 10° N
Timation 1 Rocket 4.3 05:13:58 31° NW 05:16:46 62° WSW 05:22:40 10° S
CZ-4 R/B 4.4 05:14:31 10° NE 05:17:03 16° E 05:19:35 10° SE
Cosmos 1680 Rocket 3.8 05:19:29 37° W 05:20:26 41° WNW 05:25:22 10° N
SKYMED 2 3.6 05:16:21 10° SSE 05:20:40 79° ENE 05:24:53 11° N
Cosmos 2151 Rocket 3.6 05:16:57 10° SSW 05:21:23 56° W 05:25:49 10° N
SL-08 ROCKET BODY 4.3 05:18:10 10° SSW 05:24:07 64° W 05:29:59 10° N
USA 215 3.5 05:18:38 10° NNE 05:24:47 45° NW 05:28:10 25° W
Meteor 1-28 Rocket 4.2 05:25:03 10° SSE 05:28:40 46° ENE 05:32:19 10° N
Cosmos 1633 3.5 05:26:51 10° S 05:30:23 50° E 05:33:56 10° NNE
CSL-04 DEB 4.4 05:28:16 10° NNE 05:32:19 86° E 05:36:29 10° SSW
Abrixas rocket 3.4 05:30:53 12° SSW 05:33:50 43° SE 05:37:03 10° ENE
Tiangong 2 2.3 05:38:00 26° NNW 05:38:15 27° N 05:41:00 10° NE
Radarsat Rocket 4.5 05:34:01 10° N 05:40:58 65° WNW 05:48:48 10° SSW
NOAA 6 4.3 05:36:40 10° N 05:41:27 41° WNW 05:46:13 10° SW
OAO 3 Copernicus 4.4 05:39:32 22° WSW 05:42:50 75° S 05:47:55 10° E
DELTA 2 R/B(2) 3.7 05:43:05 32° W 05:44:10 68° NNW 05:46:03 10° ENE
Cosmos 1536 Rocket 3.9 05:43:30 12° NNW 05:47:25 43° W 05:51:34 10° SSW
CENTAUR R/B 3.7 05:46:00 19° WNW 05:47:37 21° NW 05:52:38 10° N
Cosmos 1610 Rocket 4.5 05:42:43 10° SSW 05:48:47 61° W 05:54:58 10° N
Cosmos 1238 Rocket 4.2 05:47:59 14° NW 05:51:32 33° W 05:56:35 10° SSW
CZ-2C R/B 4.1 05:46:44 10° NNE 05:51:33 38° E 05:56:14 10° SSE
CSL-04 Debris 4.2 05:47:44 10° NNE 05:53:14 87° ESE 05:58:43 10° SSW
CSL-04 Rocket 3.6 05:47:51 10° N 05:53:25 79° WNW 05:58:54 10° SSW
Gbstr 26 Del rocket 3.8 05:51:19 21° WNW 05:53:38 34° SW 05:57:17 10° SSE
YAOGAN 1 4.5 05:50:59 10° NNE 05:54:55 33° E 05:58:50 10° SSE
Cosmos 1603 3.9 05:51:17 10° SW 05:56:48 50° WNW 06:02:19 10° N
Cosmos 44 4.1 05:55:20 10° SSW 06:00:38 61° ESE 06:05:50 10° NE
Cosmos 2369 Rocket 3.1 05:56:54 10° N 06:02:28 50° ENE 06:07:58 10° SE
Okean 1 Rocket 3.2 05:59:32 10° SSW 06:03:51 53° W 06:08:09 10° N
SMAP 4.2 05:59:33 10° NNE 06:04:03 47° E 06:08:32 10° S
PSLV R/B 3.8 06:01:56 18° WNW 06:04:13 47° NNE 06:07:29 10° E
Cosmos 1025 Rocket 3.7 06:00:35 10° N 06:04:55 59° E 06:09:13 10° SSE
COSMO-SKYMED 1 3.5 06:05:05 10° SSW 06:08:48 28° W 06:12:32 10° NW
Lacrosse 5 1.9 06:07:16 10° SW 06:12:19 63° NW 06:17:24 10° NE
Cosmos 921 Rocket 4.1 06:08:51 10° NW 06:12:36 27° W 06:16:22 10° SSW
USA 129 1.8 06:11:23 10° S 06:13:14 43° W 06:15:13 10° NNW
Okean 1-7 Rocket 3.6 06:10:16 10° NNW 06:14:38 63° W 06:18:56 10° S
PAYLOAD A 4.1 06:11:02 10° N 06:16:24 80° WNW 06:21:49 10° SSW
SPOT 3 Rocket 4.0 06:15:01 10° NNE 06:20:10 69° ESE 06:25:17 10° S
Nadezhda 3 Rocket 4.2 06:17:42 10° NNW 06:23:51 53° W 06:29:59 10° SSW
Cosmos 1943 3.2 06:18:23 10° SSW 06:23:57 67° WNW 06:29:35 10° NNE
Cosmos 2056 Rocket 3.8 06:19:26 10° NNW 06:24:19 44° WSW 06:29:08 10° S
Cosmos 44 Rocket 3.8 06:25:20 10° SW 06:30:14 42° NW 06:35:06 10° NNE
MOS 1 4.4 06:25:32 10° NNE 06:31:13 86° ESE 06:36:52 10° SSW
Meteor 1-29 3.4 06:30:13 10° SSE 06:33:32 62° ENE 06:36:53 10° N
Okean 2 3.6 06:29:58 10° N 06:34:09 78° E 06:38:18 10° S
Cosmos 1892 Rocket 3.9 06:30:03 10° N 06:34:30 72° E 06:38:58 10° SSE
USA 229 DEB 3.9 06:28:28 10° SSW 06:35:20 85° ESE 06:42:20 10° NNE
USA 229 3.9 06:28:36 10° SSW 06:35:28 84° ESE 06:42:27 10° NNE
Meteor 1-11 Rocket 4.4 06:31:26 10° SW 06:36:46 35° WNW 06:42:03 10° N
Cosmos 2341 Rocket 4.4 06:32:22 10° SSW 06:38:20 44° W 06:44:19 10° N
